Flag for U.S.A. Weather past 2 weeks in Stillwater, Minnesota, U.S.A.

Now
60 °F

Fog.


Feels Like: 60 °F
Forecast: 56 / 70 °F
Wind: 6 mph from Southeast

Location: St. Paul Downtown Holman Field

Current Time: May 25, 2015 at 9:30:22 AM

Latest Report: May 25, 2015 at 9:02 AM


Visibility: 4 mi

Pressure: 29.67 "Hg

Humidity: 100%

Dew point: 60 °F

Location of StillwaterLocation

Historic Weather in Stillwater — Graph

°F

Stillwater temperature yesterday

Maximum temperature yesterday: 63 °F (at 12:53 AM)
Minimum temperature yesterday: 58 °F (at 9:53 PM)
Average temperature yesterday: 60 °F

Past Weeks' High & Low Weather Summary

 TemperatureHumidityPressure
High75 °F (May 16, 5:53 PM)100% (May 14, 8:53 PM)30.43 "Hg (May 14, 8:53 PM)
Low35 °F (May 19, 5:53 AM)25% (May 21, 6:53 PM)29.54 "Hg (May 17, 5:53 PM)
Average56 °F70%30.03 "Hg
* Reported May 10 7:53 AM — May 25 7:53 AM, Stillwater, Weather by CustomWeather, © 2015

Note: Actual official high and low records may vary slightly from our data, if they occured in-between our weather recording intervals... More about our weather records

Advertising

Stillwater weather history for previous 24 hours

 ConditionsComfort  
Time TempWeatherWind HumidityBarometerVisibility
7:53 AM
Mon, May 25
59 °FFog.5 mph100%29.66 "Hg1 mi
6:53 AM58 °FFog.3 mph100%29.67 "Hg2 mi
5:53 AM58 °FFog.5 mph100%29.67 "Hg4 mi
4:53 AM58 °FFog.6 mph97%29.68 "Hg5 mi
4:04 AM58 °FLight rain. Overcast.7 mph97%29.69 "Hg8 mi
3:53 AM58 °FLight rain. Fog.6 mph97%29.69 "Hg6 mi
2:53 AM58 °FMostly cloudy.7 mph97%29.70 "Hg7 mi
1:53 AM58 °FLight rain. Low clouds.9 mph97%29.73 "Hg7 mi
12:53 AM58 °FLight rain. Low clouds.6 mph97%29.75 "Hg9 mi
11:53 PM
Sun, May 24
58 °FLight rain. Fog.6 mph97%29.78 "Hg5 mi
10:53 PM58 °FLow clouds.8 mph97%29.80 "Hg9 mi
9:53 PM58 °FLight rain. Fog.8 mph97%29.82 "Hg5 mi
8:53 PM59 °FOvercast.8 mph93%29.84 "Hg7 mi
7:53 PM59 °FLight rain. Fog.7 mph96%29.86 "Hg4 mi
6:53 PM59 °FLight rain. Fog.8 mph96%29.87 "Hg4 mi
6:02 PM59 °FLight rain. Fog.8 mph96%29.90 "Hg2 mi
5:53 PM59 °FLight rain. Fog.9 mph96%29.90 "Hg2 mi
4:53 PM60 °FLight rain. Fog.6 mph93%29.91 "Hg3 mi
3:53 PM60 °FLight rain. Mostly cloudy.9 mph93%29.93 "Hg7 mi
2:53 PM60 °FLight rain. Fog.9 mph90%29.96 "Hg5 mi
1:53 PM60 °FLight rain. Fog.13 mph86%29.99 "Hg6 mi
12:53 PM63 °FLight rain. Overcast.13 mph81%30.00 "Hg10 mi
11:53 AM63 °FLight rain. Overcast.7 mph78%30.02 "Hg10 mi
10:53 AM62 °FLight rain. Mostly cloudy.7 mph80%30.04 "Hg5 mi
9:53 AM63 °FLight rain. Overcast.5 mph73%30.03 "Hg10 mi
Weather by CustomWeather, © 2015

See weather overviewHow to use our weather pages